TimeEDT,TemperatureF,Dew PointF,Humidity,Sea Level PressureIn,VisibilityMPH,Wind Direction,Wind SpeedMPH,Gust SpeedMPH,PrecipitationIn,Events,Conditions,WindDirDegrees,DateUTC
12:14 AM,63.5,63.5,100,29.69,10.0,WNW,3.5,-,N/A,,Clear,300,2013-06-28 04:14:00
12:35 AM,62.6,62.6,100,29.68,5.0,West,3.5,-,N/A,,Clear,260,2013-06-28 04:35:00
12:55 AM,62.2,62.2,100,29.68,7.0,West,3.5,-,N/A,,Scattered Clouds,270,2013-06-28 04:55:00
1:14 AM,61.9,61.9,100,29.68,5.0,NW,4.6,-,N/A,,Scattered Clouds,310,2013-06-28 05:14:00
1:35 AM,63.5,63.5,100,29.68,7.0,Calm,Calm,-,N/A,,Mostly Cloudy,0,2013-06-28 05:35:00
1:55 AM,63.3,63.3,100,29.68,7.0,Calm,Calm,-,N/A,,Overcast,0,2013-06-28 05:55:00
2:35 AM,60.6,60.6,100,29.67,0.8,Calm,Calm,-,N/A,,Mist,0,2013-06-28 06:35:00
2:55 AM,59.7,59.7,100,29.67,0.2,Calm,Calm,-,N/A,Fog,Fog,0,2013-06-28 06:55:00
3:14 AM,58.6,58.6,100,29.67,0.2,Calm,Calm,-,N/A,Fog,Fog,0,2013-06-28 07:14:00
3:35 AM,58.5,58.5,100,29.66,0.2,WSW,3.5,-,N/A,Fog,Fog,240,2013-06-28 07:35:00
3:55 AM,58.5,58.5,100,29.67,2.5,Calm,Calm,-,N/A,,Clear,0,2013-06-28 07:55:00
4:15 AM,57.7,57.7,100,29.66,0.2,Calm,Calm,-,N/A,Fog,Fog,0,2013-06-28 08:15:00
4:35 AM,57.6,57.6,100,29.66,0.2,Calm,Calm,-,N/A,Fog,Fog,0,2013-06-28 08:35:00
4:54 AM,56.7,56.7,100,29.66,0.5,Calm,Calm,-,N/A,Fog,Fog,0,2013-06-28 08:54:00
5:15 AM,56.5,56.5,100,29.65,0.5,Calm,Calm,-,N/A,Fog,Fog,0,2013-06-28 09:15:00
5:35 AM,55.9,55.9,100,29.65,3.0,Calm,Calm,-,N/A,,Clear,0,2013-06-28 09:35:00
5:54 AM,55.9,55.9,100,29.65,2.0,Calm,Calm,-,N/A,,Clear,0,2013-06-28 09:54:00
6:15 AM,57.7,57.7,100,29.64,5.0,Calm,Calm,-,N/A,,Clear,0,2013-06-28 10:15:00
6:35 AM,57.7,57.7,100,29.64,10.0,Calm,Calm,-,N/A,,Scattered Clouds,0,2013-06-28 10:35:00
6:54 AM,58.5,58.5,100,29.64,10.0,Calm,Calm,-,N/A,,Scattered Clouds,0,2013-06-28 10:54:00
7:15 AM,58.5,58.5,100,29.64,10.0,WSW,3.5,-,N/A,,Clear,250,2013-06-28 11:15:00
7:34 AM,59.9,59.9,100,29.64,10.0,West,3.5,-,N/A,,Clear,270,2013-06-28 11:34:00
7:55 AM,60.8,60.8,100,29.63,10.0,West,3.5,-,N/A,,Clear,280,2013-06-28 11:55:00
8:15 AM,61.3,61.0,99,29.63,10.0,Calm,Calm,-,N/A,,Clear,0,2013-06-28 12:15:00
8:34 AM,62.1,61.2,97,29.64,10.0,Calm,Calm,-,N/A,,Clear,0,2013-06-28 12:34:00
8:55 AM,63.1,61.5,94,29.64,10.0,WNW,5.8,-,N/A,,Mostly Cloudy,300,2013-06-28 12:55:00
9:15 AM,65.7,63.1,92,29.63,10.0,NW,5.8,-,N/A,,Scattered Clouds,310,2013-06-28 13:15:00
9:34 AM,68.5,64.4,87,29.63,10.0,NW,5.8,-,N/A,,Mostly Cloudy,310,2013-06-28 13:34:00
9:55 AM,68.5,64.0,85,29.63,10.0,North,3.5,-,N/A,,Mostly Cloudy,350,2013-06-28 13:55:00
10:14 AM,68.5,63.5,84,29.63,10.0,North,5.8,-,N/A,,Scattered Clouds,10,2013-06-28 14:14:00
10:35 AM,68.5,62.4,81,29.62,10.0,North,5.8,-,N/A,,Mostly Cloudy,350,2013-06-28 14:35:00
10:55 AM,70.9,64.0,79,29.62,10.0,NE,6.9,-,N/A,,Overcast,40,2013-06-28 14:55:00
11:14 AM,70.3,62.6,76,29.62,10.0,NNW,6.9,-,N/A,,Overcast,340,2013-06-28 15:14:00
11:35 AM,71.8,63.0,74,29.62,10.0,NNW,5.8,-,N/A,,Overcast,340,2013-06-28 15:35:00
11:55 AM,71.1,62.2,74,29.61,10.0,NNE,8.1,-,N/A,,Mostly Cloudy,20,2013-06-28 15:55:00
12:14 PM,73.6,61.2,65,29.61,10.0,North,5.8,-,N/A,,Scattered Clouds,10,2013-06-28 16:14:00
12:35 PM,75.0,60.6,61,29.61,10.0,North,6.9,-,N/A,,Scattered Clouds,350,2013-06-28 16:35:00
12:55 PM,73.6,59.4,61,29.61,10.0,North,6.9,-,N/A,,Mostly Cloudy,10,2013-06-28 16:55:00
1:14 PM,73.6,62.1,67,29.61,10.0,NNW,4.6,-,N/A,,Mostly Cloudy,340,2013-06-28 17:14:00
1:35 PM,73.6,60.8,64,29.61,10.0,NE,8.1,-,N/A,,Mostly Cloudy,40,2013-06-28 17:35:00
1:55 PM,74.8,61.5,63,29.60,10.0,ENE,8.1,-,N/A,,Mostly Cloudy,60,2013-06-28 17:55:00
2:14 PM,76.1,62.1,62,29.60,10.0,NNE,10.4,-,N/A,,Scattered Clouds,20,2013-06-28 18:14:00
2:35 PM,76.1,61.2,60,29.60,10.0,NE,8.1,16.1,N/A,,Scattered Clouds,40,2013-06-28 18:35:00
2:54 PM,76.1,61.3,60,29.60,10.0,NE,11.5,-,N/A,,Scattered Clouds,40,2013-06-28 18:54:00
3:15 PM,76.1,60.1,57,29.59,10.0,North,11.5,16.1,N/A,,Scattered Clouds,10,2013-06-28 19:15:00
3:35 PM,75.7,62.2,63,29.59,10.0,NNE,9.2,-,N/A,,Mostly Cloudy,30,2013-06-28 19:35:00
3:54 PM,73.6,61.2,65,29.59,10.0,NE,9.2,-,N/A,,Scattered Clouds,50,2013-06-28 19:54:00
4:15 PM,73.6,60.8,64,29.59,10.0,NE,10.4,-,N/A,,Scattered Clouds,40,2013-06-28 20:15:00
4:35 PM,73.6,61.2,65,29.59,10.0,NE,11.5,-,N/A,,Mostly Cloudy,40,2013-06-28 20:35:00
4:54 PM,73.6,59.9,62,29.59,10.0,North,10.4,-,N/A,,Scattered Clouds,10,2013-06-28 20:54:00
5:15 PM,73.6,62.8,69,29.59,10.0,NE,9.2,-,N/A,,Overcast,40,2013-06-28 21:15:00
5:35 PM,73.6,60.8,64,29.60,10.0,North,11.5,-,N/A,,Mostly Cloudy,10,2013-06-28 21:35:00
5:54 PM,73.6,61.9,67,29.60,10.0,NE,9.2,-,N/A,,Mostly Cloudy,40,2013-06-28 21:54:00
6:15 PM,73.6,61.3,65,29.61,10.0,NNE,11.5,-,N/A,,Mostly Cloudy,30,2013-06-28 22:15:00
6:34 PM,73.6,63.5,71,29.61,10.0,ENE,13.8,-,N/A,,Mostly Cloudy,60,2013-06-28 22:34:00
6:54 PM,71.1,61.2,71,29.61,10.0,NNE,10.4,16.1,N/A,,Scattered Clouds,30,2013-06-28 22:54:00
7:15 PM,71.1,60.6,69,29.62,10.0,NNE,12.7,-,N/A,,Scattered Clouds,30,2013-06-28 23:15:00
7:34 PM,68.7,59.2,72,29.63,10.0,NE,10.4,-,N/A,,Scattered Clouds,50,2013-06-28 23:34:00
7:55 PM,68.5,59.9,74,29.63,10.0,NE,10.4,-,N/A,,Clear,40,2013-06-28 23:55:00
8:15 PM,68.5,61.9,79,29.64,10.0,ENE,6.9,-,N/A,,Scattered Clouds,60,2013-06-29 00:15:00
8:34 PM,68.5,63.0,82,29.64,10.0,East,6.9,-,N/A,,Mostly Cloudy,80,2013-06-29 00:34:00
8:55 PM,68.5,63.5,84,29.64,10.0,ENE,6.9,-,N/A,,Overcast,70,2013-06-29 00:55:00
9:14 PM,68.5,64.0,85,29.64,10.0,ENE,8.1,-,N/A,,Overcast,70,2013-06-29 01:14:00
9:34 PM,67.3,63.7,88,29.64,10.0,ENE,6.9,-,N/A,,Overcast,70,2013-06-29 01:34:00
9:55 PM,65.7,63.1,92,29.64,2.5,ENE,3.5,-,N/A,,Scattered Clouds,60,2013-06-29 01:55:00
10:14 PM,63.5,62.1,95,29.65,7.0,NE,3.5,-,N/A,,Clear,40,2013-06-29 02:14:00
10:35 PM,62.6,61.3,96,29.65,10.0,NNE,3.5,-,N/A,,Clear,20,2013-06-29 02:35:00
10:54 PM,62.4,61.7,97,29.65,10.0,North,3.5,-,N/A,,Mostly Cloudy,350,2013-06-29 02:54:00
11:15 PM,61.9,61.2,97,29.65,10.0,Calm,Calm,-,N/A,,Overcast,0,2013-06-29 03:15:00
11:35 PM,62.2,61.7,98,29.64,10.0,NNW,3.5,-,N/A,,Overcast,340,2013-06-29 03:35:00
11:54 PM,61.2,60.8,99,29.64,10.0,NNW,3.5,-,N/A,,Mostly Cloudy,340,2013-06-29 03:54:00